Weather History for Palm Springs, CA

Change the Weather History Date:

Sunday, December 16, 2012

  Actual Average Record
Temperature  
Mean Temperature 53 °F 55 °F  
Max Temperature 63 °F 66 °F 90 °F (1980)
Min Temperature 43 °F 44 °F 30 °F (1945)
Degree Days  
Heating Degree Days 12 10  
Month to date heating degree days 67 143  
Since 1 July heating degree days 102 239  
Cooling Degree Days 0 0  
Month to date cooling degree days 21 0  
Year to date cooling degree days 4726 4137  
Growing Degree Days 4 (Base 50)    
Moisture  
Dew Point 41 °F    
Average Humidity 63    
Maximum Humidity 86    
Minimum Humidity 39    
Precipitation  
Precipitation 0.00 in 0.03 in 1.23 in (1938)
Month to date precipitation 0.15 0.35  
Year to date precipitation 1.97 5.21  
Since 1 July precipitation 1.18 2.27  
Snow  
Snow 0.00 in - - ()
Month to date snowfall 0.0  
Year to date snowfall 0.0  
Since 1 July snowfall 0.0  
Snow Depth 0.00 in    
Sea Level Pressure  
Sea Level Pressure 30.09 in    
Wind  
Wind Speed 3 mph (South)    
Max Wind Speed 10 mph    
Max Gust Speed 14 mph    
Visibility 10 miles    
Events      
T = Trace of Precipitation, MM = Missing Value Source: NWS Daily Summary

Daily Weather History Graph

Daily Weather History Graph

Search for Another Location

Airport:

Trip Planner

Search our weather history database for the weather conditions in past years. The results will help you decide how hot, cold, wet, or windy it might be!

Date:

Astronomy

Dec. 16, 2012 Rise Set
Actual Time 6:44 AM PST 4:39 PM PST
Civil Twilight 6:16 AM PST 5:07 PM PST
Nautical Twilight 5:45 AM PST 5:38 PM PST
Astronomical Twilight 5:15 AM PST 6:08 PM PST
Moon 9:29 AM PST (12/16) 8:49 PM PST (12/16)
Length of Visible Light 10h 50m
Length of Day
9h 54m
Waxing Crescent, 17% of the Moon is Illuminated
Dec 16
Waxing Crescent
Dec 19
First Quarter
Dec 28
Full
Jan 4
Last Quarter
Jan 11
New

Hourly Weather History & Observations

Time (PST) Temp. Dew Point Humidity Pressure Visibility Wind Dir Wind Speed Gust Speed Precip Events Conditions
12:53 AM 51.1 °F 45.0 °F 80% 30.04 in 10.0 mi SW 5.8 mph - N/A   Mostly Cloudy
1:53 AM 50.0 °F 44.1 °F 80% 30.05 in 10.0 mi Calm Calm - N/A   Clear
2:53 AM 48.9 °F 43.0 °F 80% 30.04 in 10.0 mi Calm Calm - N/A   Overcast
3:53 AM 48.9 °F 43.0 °F 80% 30.05 in 10.0 mi Calm Calm - N/A   Clear
4:53 AM 46.9 °F 43.0 °F 86% 30.06 in 10.0 mi Calm Calm - N/A   Clear
5:53 AM 46.0 °F 42.1 °F 86% 30.08 in 10.0 mi Calm Calm - N/A   Clear
6:53 AM 48.0 °F 41.0 °F 77% 30.09 in 10.0 mi WSW 3.5 mph - N/A   Clear
7:53 AM 50.0 °F 41.0 °F 71% 30.13 in 10.0 mi Calm Calm - N/A   Scattered Clouds
8:53 AM 53.1 °F 42.1 °F 66% 30.14 in 10.0 mi South 3.5 mph - N/A   Scattered Clouds
9:53 AM 55.9 °F 39.9 °F 55% 30.14 in 10.0 mi Calm Calm - N/A   Scattered Clouds
10:53 AM 59.0 °F 37.9 °F 46% 30.13 in 10.0 mi Calm Calm - N/A   Scattered Clouds
11:53 AM 60.1 °F 37.9 °F 44% 30.11 in 10.0 mi SSE 8.1 mph - N/A   Scattered Clouds
12:53 PM 61.0 °F 37.0 °F 41% 30.09 in 10.0 mi SE 10.4 mph - N/A   Scattered Clouds
1:53 PM 62.1 °F 37.9 °F 41% 30.06 in 10.0 mi SE 8.1 mph - N/A   Mostly Cloudy
2:53 PM 63.0 °F 37.0 °F 38% 30.06 in 10.0 mi SE 8.1 mph - N/A   Mostly Cloudy
3:53 PM 61.0 °F 37.9 °F 42% 30.06 in 10.0 mi SE 6.9 mph - N/A   Mostly Cloudy
4:53 PM 59.0 °F 39.0 °F 48% 30.07 in 10.0 mi ESE 6.9 mph - N/A   Scattered Clouds
5:53 PM 55.9 °F 41.0 °F 57% 30.09 in 10.0 mi SE 4.6 mph - N/A   Mostly Cloudy
6:53 PM 55.9 °F 41.0 °F 57% 30.12 in 10.0 mi East 3.5 mph - N/A   Overcast
7:53 PM 55.0 °F 42.1 °F 62% 30.13 in 10.0 mi Calm Calm - N/A   Mostly Cloudy
8:53 PM 54.0 °F 42.1 °F 64% 30.14 in 10.0 mi WSW 3.5 mph - N/A   Mostly Cloudy
10:53 PM 51.1 °F 41.0 °F 68% 30.14 in 10.0 mi WSW 4.6 mph - N/A   Clear
11:53 PM 51.1 °F 39.9 °F 66% 30.14 in 10.0 mi WSW 3.5 mph - N/A   Overcast